TVF82XT LFLL-GOBD

Flight info

Callsign TVF82XT
Flight time 5h 12m
Altitude 35000
Route REPSI DCT LERGA DCT MINSO DCT NARAK DCT AGN DCT MAQAB DCT TIVLI DCT ELSAP DCT ZAR DCT EXEMU DCT PISUS DCT EDIMU DCT ADUXO DCT NUSGO DCT OBIBO DCT NASOS L27 BLN DCT MGA DCT PIMOS DCT GALTO UN869 MABAP/N0451F370 UN869 ADM UR975 MOROX/N0458F360 UR975 ECHED/N0461F360 UR975 ZRT DCT MINBA DCT SEPEL UR975 SAKLI
Aircraft B738/M-SDFGHIJ1RWXY/LB1

Departure

Time 2026-04-25 08:56
Airport Lyon Saint-Exupéry Airport (LFLL)

Arrival

Time 2026-04-25 14:08
Airport Blaise Diagne International Airport (GOBD)
Time Latitude Longitude Altitude Speed Heading
2026-04-25 08:02 45.71483 5.08349 799 ft 0 kts 22°
2026-04-25 08:42 45.71476 5.08345 799 ft 3 kts 16°
2026-04-25 08:42 45.71456 5.08340 799 ft 3 kts
2026-04-25 08:43 45.71438 5.08338 799 ft 3 kts 10°
2026-04-25 08:43 45.71420 5.08331 800 ft 3 kts 37°
2026-04-25 08:43 45.71408 5.08312 800 ft 3 kts 75°
2026-04-25 08:43 45.71406 5.08294 800 ft 1 kts 87°
2026-04-25 08:44 45.71406 5.08293 800 ft 1 kts 87°
2026-04-25 08:46 45.71406 5.08303 800 ft 2 kts 87°
2026-04-25 08:47 45.71407 5.08342 800 ft 5 kts 87°
2026-04-25 08:47 45.71410 5.08407 800 ft 8 kts 85°
2026-04-25 08:47 45.71424 5.08492 800 ft 10 kts 55°
2026-04-25 08:47 45.71497 5.08515 799 ft 13 kts 356°
2026-04-25 08:48 45.71592 5.08504 798 ft 14 kts 355°
2026-04-25 08:48 45.71689 5.08492 797 ft 14 kts 355°
2026-04-25 08:48 45.71781 5.08480 796 ft 13 kts 355°
2026-04-25 08:48 45.71872 5.08469 794 ft 13 kts 355°
2026-04-25 08:49 45.71968 5.08458 793 ft 14 kts 355°
2026-04-25 08:49 45.72072 5.08444 792 ft 16 kts 354°
2026-04-25 08:49 45.72186 5.08429 791 ft 17 kts 354°
2026-04-25 08:49 45.72305 5.08417 789 ft 17 kts 356°
2026-04-25 08:50 45.72423 5.08404 788 ft 17 kts 355°
2026-04-25 08:50 45.72535 5.08389 786 ft 16 kts 355°
2026-04-25 08:50 45.72643 5.08376 785 ft 15 kts 355°
2026-04-25 08:50 45.72747 5.08363 784 ft 15 kts 355°
2026-04-25 08:51 45.72847 5.08350 782 ft 14 kts 354°
2026-04-25 08:51 45.72945 5.08338 781 ft 15 kts 356°
2026-04-25 08:51 45.73057 5.08325 780 ft 17 kts 355°
2026-04-25 08:51 45.73186 5.08311 778 ft 20 kts 355°
2026-04-25 08:52 45.73332 5.08293 777 ft 22 kts 355°
2026-04-25 08:52 45.73491 5.08272 775 ft 24 kts 354°
2026-04-25 08:52 45.73649 5.08252 774 ft 23 kts 356°
2026-04-25 08:52 45.73804 5.08233 772 ft 22 kts 355°
2026-04-25 08:53 45.73954 5.08217 771 ft 21 kts 356°
2026-04-25 08:53 45.74100 5.08237 770 ft 21 kts 12°
2026-04-25 08:53 45.74239 5.08284 769 ft 20 kts 14°
2026-04-25 08:53 45.74329 5.08339 768 ft 13 kts 47°
2026-04-25 08:54 45.74353 5.08446 768 ft 9 kts 84°
2026-04-25 08:54 45.74354 5.08539 769 ft 9 kts 96°
2026-04-25 08:54 45.74340 5.08616 770 ft 6 kts 123°
2026-04-25 08:54 45.74321 5.08632 770 ft 3 kts 166°
2026-04-25 08:55 45.74190 5.08652 770 ft 51 kts 175°
2026-04-25 08:55 45.73593 5.08726 776 ft 118 kts 175°
2026-04-25 08:55 45.72577 5.08848 797 ft 172 kts 175°
2026-04-25 08:55 45.71337 5.08992 1370 ft 183 kts 175°
2026-04-25 08:56 45.70038 5.09139 2050 ft 192 kts 175°
2026-04-25 08:56 45.68681 5.09300 2725 ft 205 kts 175°
2026-04-25 08:56 45.67183 5.09484 2892 ft 226 kts 175°
2026-04-25 08:56 45.65575 5.09685 3300 ft 236 kts 174°
2026-04-25 08:57 45.63919 5.09895 3837 ft 242 kts 175°
2026-04-25 08:57 45.62231 5.10070 4358 ft 254 kts 181°
2026-04-25 08:57 45.60457 5.09490 4678 ft 271 kts 208°
2026-04-25 08:57 45.58991 5.07818 5386 ft 271 kts 234°
2026-04-25 08:58 45.58158 5.05445 6140 ft 269 kts 257°
2026-04-25 08:58 45.57759 5.02817 6841 ft 273 kts 261°
2026-04-25 08:58 45.57392 5.00149 7537 ft 275 kts 261°
2026-04-25 08:58 45.57012 4.97471 8253 ft 277 kts 260°
2026-04-25 08:59 45.56616 4.94768 8901 ft 280 kts 260°
2026-04-25 08:59 45.56210 4.92065 9584 ft 284 kts 260°
2026-04-25 08:59 45.55791 4.89310 10273 ft 285 kts 261°
2026-04-25 08:59 45.55421 4.86518 10889 ft 287 kts 266°
2026-04-25 09:00 45.55240 4.83675 11491 ft 289 kts 269°
2026-04-25 09:00 45.55114 4.80804 12144 ft 291 kts 269°
2026-04-25 09:00 45.54992 4.77912 12754 ft 294 kts 269°
2026-04-25 09:00 45.54863 4.74989 13360 ft 297 kts 269°
2026-04-25 09:01 45.54723 4.72037 13991 ft 299 kts 269°
2026-04-25 09:01 45.54576 4.69071 14552 ft 301 kts 269°
2026-04-25 09:01 45.54422 4.66082 15129 ft 303 kts 269°
2026-04-25 09:01 45.54265 4.63054 15355 ft 319 kts 269°
2026-04-25 09:02 45.54095 4.59836 15632 ft 330 kts 268°
2026-04-25 09:02 45.53918 4.56554 16160 ft 333 kts 268°
2026-04-25 09:02 45.53737 4.53255 16775 ft 334 kts 268°
2026-04-25 09:02 45.53555 4.49939 17333 ft 337 kts 268°
2026-04-25 09:03 45.53371 4.46600 17874 ft 339 kts 268°
2026-04-25 09:03 45.53185 4.43233 18419 ft 342 kts 268°
2026-04-25 09:03 45.52996 4.39842 18897 ft 344 kts 268°
2026-04-25 09:03 45.52808 4.36474 19378 ft 347 kts 268°
2026-04-25 09:04 45.52615 4.33041 19851 ft 349 kts 268°
2026-04-25 09:04 45.52406 4.29586 20311 ft 352 kts 264°
2026-04-25 09:04 45.51665 4.26229 20705 ft 362 kts 244°
2026-04-25 09:04 45.50280 4.23209 21188 ft 365 kts 237°
2026-04-25 09:05 45.48785 4.20265 21642 ft 368 kts 236°
2026-04-25 09:05 45.47263 4.17324 22062 ft 371 kts 236°
2026-04-25 09:05 45.45724 4.14343 22513 ft 373 kts 236°
2026-04-25 09:05 45.44188 4.11349 22964 ft 375 kts 236°
2026-04-25 09:06 45.42653 4.08339 23406 ft 377 kts 236°
2026-04-25 09:06 45.41130 4.05344 23805 ft 379 kts 236°
2026-04-25 09:06 45.39580 4.02287 24168 ft 381 kts 236°
2026-04-25 09:06 45.38028 3.99224 24535 ft 383 kts 236°
2026-04-25 09:07 45.36466 3.96146 24902 ft 384 kts 236°
2026-04-25 09:07 45.34899 3.93058 25253 ft 386 kts 236°
2026-04-25 09:07 45.33322 3.89954 25600 ft 388 kts 236°
2026-04-25 09:07 45.31739 3.86841 25930 ft 390 kts 236°
2026-04-25 09:08 45.30144 3.83710 26296 ft 391 kts 235°
2026-04-25 09:08 45.28570 3.80622 26671 ft 391 kts 235°
2026-04-25 09:08 45.26969 3.77486 26981 ft 394 kts 235°
2026-04-25 09:08 45.25359 3.74331 27264 ft 396 kts 236°
2026-04-25 09:09 45.23764 3.71137 27586 ft 398 kts 236°
2026-04-25 09:09 45.22178 3.67913 27909 ft 399 kts 236°
2026-04-25 09:09 45.20592 3.64676 28232 ft 401 kts 236°
2026-04-25 09:09 45.18994 3.61418 28532 ft 403 kts 236°
2026-04-25 09:10 45.17390 3.58155 28815 ft 405 kts 236°
2026-04-25 09:10 45.15769 3.54886 29108 ft 406 kts 234°
2026-04-25 09:10 45.13933 3.51894 29371 ft 410 kts 227°
2026-04-25 09:10 45.11912 3.49018 29489 ft 416 kts 226°
2026-04-25 09:11 45.07738 3.43243 29917 ft 420 kts 225°
2026-04-25 09:11 45.05650 3.40347 30220 ft 421 kts 225°
2026-04-25 09:11 45.03561 3.37430 30450 ft 422 kts 226°
2026-04-25 09:12 45.01471 3.34499 30668 ft 424 kts 226°
2026-04-25 09:12 44.99410 3.31599 30874 ft 425 kts 226°
2026-04-25 09:12 44.97309 3.28636 31090 ft 426 kts 226°
2026-04-25 09:12 44.95208 3.25674 31299 ft 427 kts 226°
2026-04-25 09:13 44.93102 3.22705 31508 ft 428 kts 226°
2026-04-25 09:13 44.90989 3.19731 31728 ft 429 kts 226°
2026-04-25 09:13 44.88874 3.16754 31916 ft 430 kts 226°
2026-04-25 09:13 44.86897 3.13580 32088 ft 431 kts 232°
2026-04-25 09:14 44.85083 3.10281 32275 ft 432 kts 233°
2026-04-25 09:14 44.83279 3.06894 32456 ft 433 kts 234°
2026-04-25 09:14 44.81476 3.03488 32641 ft 434 kts 234°
2026-04-25 09:14 44.79665 3.00087 32831 ft 435 kts 233°
2026-04-25 09:15 44.77838 2.96688 33008 ft 436 kts 233°
2026-04-25 09:15 44.76072 2.93220 33153 ft 436 kts 238°
2026-04-25 09:15 44.74510 2.89560 33326 ft 437 kts 240°
2026-04-25 09:15 44.73009 2.85836 33483 ft 438 kts 241°
2026-04-25 09:16 44.71544 2.82145 33632 ft 439 kts 241°
2026-04-25 09:16 44.70050 2.78395 33777 ft 440 kts 241°
2026-04-25 09:16 44.68539 2.74641 33931 ft 441 kts 241°
2026-04-25 09:16 44.67014 2.70891 34080 ft 442 kts 240°
2026-04-25 09:17 44.63945 2.63428 34526 ft 439 kts 240°
2026-04-25 09:17 44.62417 2.59734 34732 ft 438 kts 240°
2026-04-25 09:17 44.60906 2.56090 34847 ft 438 kts 240°
2026-04-25 09:18 44.59370 2.52391 34953 ft 439 kts 240°
2026-04-25 09:18 44.57831 2.48687 35113 ft 438 kts 240°
2026-04-25 09:18 44.56295 2.44996 35175 ft 440 kts 240°
2026-04-25 09:19 44.53203 2.37580 35181 ft 440 kts 240°
2026-04-25 09:19 44.50122 2.30209 35177 ft 437 kts 240°
2026-04-25 09:20 44.47078 2.22942 35185 ft 434 kts 240°
2026-04-25 09:20 44.44025 2.15676 35180 ft 432 kts 240°
2026-04-25 09:21 44.40975 2.08433 35183 ft 432 kts 240°
2026-04-25 09:21 44.37925 2.01209 35185 ft 432 kts 240°
2026-04-25 09:22 44.34858 1.93962 35191 ft 433 kts 240°
2026-04-25 09:22 44.31802 1.86760 35199 ft 435 kts 240°
2026-04-25 09:23 44.28707 1.79486 35200 ft 437 kts 240°
2026-04-25 09:23 44.25592 1.72180 35194 ft 439 kts 240°
2026-04-25 09:24 44.22460 1.64857 35192 ft 440 kts 240°
2026-04-25 09:24 44.19317 1.57526 35190 ft 441 kts 240°
2026-04-25 09:25 44.16181 1.50228 35200 ft 441 kts 240°
2026-04-25 09:25 44.13025 1.42905 35183 ft 441 kts 240°
2026-04-25 09:26 44.09873 1.35608 35185 ft 439 kts 240°
2026-04-25 09:26 44.06726 1.28341 35183 ft 437 kts 240°
2026-04-25 09:27 44.03611 1.21165 35184 ft 435 kts 239°
2026-04-25 09:27 44.00487 1.13986 35185 ft 433 kts 239°
2026-04-25 09:28 43.97372 1.06845 35187 ft 432 kts 239°
2026-04-25 09:28 43.94259 0.99725 35189 ft 431 kts 239°
2026-04-25 09:29 43.91144 0.92616 35188 ft 431 kts 239°
2026-04-25 09:29 43.87724 0.85879 35185 ft 432 kts 227°
2026-04-25 09:30 43.83264 0.80290 35189 ft 433 kts 222°
2026-04-25 09:30 43.78725 0.74786 35193 ft 434 kts 222°
2026-04-25 09:31 43.74190 0.69245 35195 ft 436 kts 222°
2026-04-25 09:31 43.69682 0.63710 35195 ft 437 kts 222°
2026-04-25 09:32 43.65130 0.58123 35197 ft 438 kts 222°
2026-04-25 09:32 43.60569 0.52534 35188 ft 439 kts 222°
2026-04-25 09:33 43.55993 0.46941 35201 ft 440 kts 222°
2026-04-25 09:33 43.51439 0.41388 35203 ft 440 kts 222°
2026-04-25 09:34 43.46849 0.35802 35200 ft 440 kts 222°
2026-04-25 09:34 43.42258 0.30226 35199 ft 440 kts 222°
2026-04-25 09:35 43.37672 0.24668 35196 ft 439 kts 222°
2026-04-25 09:35 43.33095 0.19133 35205 ft 438 kts 222°
2026-04-25 09:36 43.28559 0.13659 35206 ft 437 kts 222°
2026-04-25 09:36 43.24003 0.08172 35203 ft 436 kts 222°
2026-04-25 09:37 43.19443 0.02691 35199 ft 435 kts 221°
2026-04-25 09:37 43.14900 -0.02759 35219 ft 435 kts 221°
2026-04-25 09:38 43.10348 -0.08207 35212 ft 434 kts 221°
2026-04-25 09:38 43.05822 -0.13613 35207 ft 435 kts 221°
2026-04-25 09:39 43.01262 -0.19050 35190 ft 435 kts 221°
2026-04-25 09:39 42.96697 -0.24480 35210 ft 435 kts 221°
2026-04-25 09:40 42.89863 -0.32592 35177 ft 437 kts 221°
2026-04-25 09:40 42.85271 -0.38030 35172 ft 438 kts 221°
2026-04-25 09:41 42.80530 -0.43248 35166 ft 439 kts 212°
2026-04-25 09:41 42.74992 -0.46732 35179 ft 440 kts 201°
2026-04-25 09:42 42.69261 -0.49663 35170 ft 440 kts 201°
2026-04-25 09:42 42.63525 -0.52617 35151 ft 441 kts 201°
2026-04-25 09:43 42.57829 -0.55588 35135 ft 442 kts 201°
2026-04-25 09:43 42.52099 -0.58588 35145 ft 442 kts 201°
2026-04-25 09:44 42.46368 -0.61587 35125 ft 442 kts 201°
2026-04-25 09:44 42.40632 -0.64581 35138 ft 442 kts 201°
2026-04-25 09:45 42.34935 -0.67547 35138 ft 442 kts 201°
2026-04-25 09:45 42.29197 -0.70529 35129 ft 442 kts 201°
2026-04-25 09:46 42.23456 -0.73507 35141 ft 442 kts 201°
2026-04-25 09:46 42.17720 -0.76477 35143 ft 442 kts 201°
2026-04-25 09:47 42.12024 -0.79420 35138 ft 441 kts 201°
2026-04-25 09:47 42.06294 -0.82374 35133 ft 440 kts 201°
2026-04-25 09:48 42.00576 -0.85318 35134 ft 440 kts 201°
2026-04-25 09:48 41.94872 -0.88248 35132 ft 439 kts 201°
2026-04-25 09:49 41.89206 -0.91154 35145 ft 439 kts 201°
2026-04-25 09:49 41.83506 -0.94071 35151 ft 438 kts 201°
2026-04-25 09:50 41.77809 -0.96981 35156 ft 438 kts 201°
2026-04-25 09:50 41.72110 -0.99888 35161 ft 438 kts 200°
2026-04-25 09:51 41.66422 -1.02837 35148 ft 439 kts 205°
2026-04-25 09:51 41.61273 -1.07092 35164 ft 439 kts 214°
2026-04-25 09:52 41.56273 -1.11794 35161 ft 440 kts 214°
2026-04-25 09:52 41.51248 -1.16458 35158 ft 440 kts 214°
2026-04-25 09:53 41.46228 -1.21061 35143 ft 441 kts 214°
2026-04-25 09:53 41.41165 -1.25684 35158 ft 442 kts 214°
2026-04-25 09:54 41.36092 -1.30308 35145 ft 442 kts 214°
2026-04-25 09:54 41.31021 -1.34926 35146 ft 442 kts 213°
2026-04-25 09:55 41.25950 -1.39534 35137 ft 442 kts 213°
2026-04-25 09:55 41.20917 -1.44117 35150 ft 441 kts 213°
2026-04-25 09:56 41.15850 -1.48710 35141 ft 441 kts 213°
2026-04-25 09:56 41.10769 -1.53284 35142 ft 441 kts 213°
2026-04-25 09:57 41.05702 -1.57839 35148 ft 440 kts 213°
2026-04-25 09:57 41.00668 -1.62360 35147 ft 439 kts 213°
2026-04-25 09:58 40.95609 -1.66896 35131 ft 439 kts 213°
2026-04-25 09:58 40.90551 -1.71422 35137 ft 439 kts 213°
2026-04-25 09:59 40.85500 -1.75935 35152 ft 438 kts 213°
2026-04-25 09:59 40.80483 -1.80409 35134 ft 438 kts 213°
2026-04-25 10:00 40.75427 -1.84909 35133 ft 438 kts 213°
2026-04-25 10:00 40.70370 -1.89408 35145 ft 438 kts 213°
2026-04-25 10:01 40.65311 -1.93903 35130 ft 439 kts 213°
2026-04-25 10:01 40.60281 -1.98364 35120 ft 439 kts 213°
2026-04-25 10:02 40.55213 -2.02851 35117 ft 439 kts 213°
2026-04-25 10:02 40.50144 -2.07332 35126 ft 439 kts 213°
2026-04-25 10:03 40.45076 -2.11830 35105 ft 440 kts 213°
2026-04-25 10:03 40.40040 -2.16293 35110 ft 440 kts 213°
2026-04-25 10:04 40.34950 -2.20767 35102 ft 441 kts 213°
2026-04-25 10:04 40.29844 -2.25237 35113 ft 441 kts 213°
2026-04-25 10:05 40.24735 -2.29706 35106 ft 442 kts 213°
2026-04-25 10:05 40.19619 -2.34175 35111 ft 442 kts 213°
2026-04-25 10:06 40.14532 -2.38612 35106 ft 443 kts 213°
2026-04-25 10:06 40.09405 -2.43075 35107 ft 443 kts 213°
2026-04-25 10:07 40.05139 -2.46783 35110 ft 443 kts 213°
2026-04-25 10:07 39.99999 -2.51242 35113 ft 443 kts 212°
2026-04-25 10:08 39.94031 -2.56410 35112 ft 443 kts 212°
2026-04-25 10:08 39.88891 -2.60853 35119 ft 443 kts 212°
2026-04-25 10:09 39.84616 -2.64541 35112 ft 443 kts 212°
2026-04-25 10:09 39.79476 -2.68969 35113 ft 443 kts 212°
2026-04-25 10:10 39.74340 -2.73385 35124 ft 443 kts 212°
2026-04-25 10:10 39.68983 -2.77311 35121 ft 441 kts 205°
2026-04-25 10:11 39.63501 -2.80784 35111 ft 441 kts 204°
2026-04-25 10:11 39.57987 -2.84273 35111 ft 441 kts 205°
2026-04-25 10:12 39.52487 -2.87809 35116 ft 441 kts 204°
2026-04-25 10:13 39.44262 -2.93138 35104 ft 440 kts 205°
2026-04-25 10:13 39.38783 -2.96685 35106 ft 440 kts 205°
2026-04-25 10:14 39.33346 -3.00199 35103 ft 440 kts 204°
2026-04-25 10:14 39.27878 -3.03726 35104 ft 439 kts 204°
2026-04-25 10:15 39.22409 -3.07246 35099 ft 440 kts 204°
2026-04-25 10:15 39.16931 -3.10767 35096 ft 440 kts 204°
2026-04-25 10:16 39.11451 -3.14281 35091 ft 440 kts 204°
2026-04-25 10:16 39.06004 -3.17769 35092 ft 441 kts 204°
2026-04-25 10:17 39.00501 -3.21287 35089 ft 442 kts 204°
2026-04-25 10:17 38.94995 -3.24801 35089 ft 442 kts 204°
2026-04-25 10:18 38.89473 -3.28318 35088 ft 443 kts 204°
2026-04-25 10:18 38.83950 -3.31831 35093 ft 444 kts 204°
2026-04-25 10:19 38.78448 -3.35323 35090 ft 444 kts 204°
2026-04-25 10:19 38.72903 -3.38837 35088 ft 445 kts 204°
2026-04-25 10:20 38.67350 -3.42350 35074 ft 445 kts 204°
2026-04-25 10:20 38.61789 -3.45861 35069 ft 446 kts 204°
2026-04-25 10:21 38.56253 -3.49351 35081 ft 447 kts 203°
2026-04-25 10:21 38.50665 -3.52868 35082 ft 448 kts 203°
2026-04-25 10:22 38.45063 -3.56386 35080 ft 449 kts 203°
2026-04-25 10:22 38.39446 -3.59909 35082 ft 450 kts 203°
2026-04-25 10:23 38.33819 -3.63432 35075 ft 451 kts 203°
2026-04-25 10:23 38.28210 -3.66937 35078 ft 452 kts 203°
2026-04-25 10:24 38.22565 -3.70459 35071 ft 452 kts 203°
2026-04-25 10:24 38.16924 -3.73972 35074 ft 451 kts 203°
2026-04-25 10:25 38.11281 -3.77481 35085 ft 451 kts 203°
2026-04-25 10:25 38.05674 -3.80960 35078 ft 451 kts 203°
2026-04-25 10:26 38.00036 -3.84454 35066 ft 451 kts 203°
2026-04-25 10:26 37.94400 -3.87939 35075 ft 451 kts 203°
2026-04-25 10:27 37.88754 -3.91425 35094 ft 451 kts 204°
2026-04-25 10:27 37.83098 -3.94911 35078 ft 453 kts 204°
2026-04-25 10:28 37.77450 -3.98386 35075 ft 455 kts 204°
2026-04-25 10:28 37.71736 -4.01895 35076 ft 457 kts 204°
2026-04-25 10:29 37.66005 -4.05410 35074 ft 459 kts 204°
2026-04-25 10:29 37.60248 -4.08934 35069 ft 461 kts 204°
2026-04-25 10:30 37.54471 -4.12464 35074 ft 462 kts 204°
2026-04-25 10:30 37.48714 -4.15976 35071 ft 463 kts 204°
2026-04-25 10:31 37.42907 -4.19513 35072 ft 464 kts 204°
2026-04-25 10:31 37.37093 -4.23047 35075 ft 464 kts 205°
2026-04-25 10:32 37.31274 -4.26578 35067 ft 464 kts 205°
2026-04-25 10:32 37.25456 -4.30102 35065 ft 464 kts 205°
2026-04-25 10:33 37.19641 -4.33620 35069 ft 463 kts 205°
2026-04-25 10:33 37.13838 -4.37124 35075 ft 463 kts 205°
2026-04-25 10:34 37.08075 -4.40597 35076 ft 462 kts 205°
2026-04-25 10:34 37.02284 -4.44080 35074 ft 462 kts 205°
2026-04-25 10:35 36.96497 -4.47556 35085 ft 461 kts 205°
2026-04-25 10:35 36.90712 -4.51025 35096 ft 461 kts 205°
2026-04-25 10:36 36.84963 -4.54468 35101 ft 462 kts 206°
2026-04-25 10:36 36.79164 -4.57933 35082 ft 462 kts 206°
2026-04-25 10:37 36.73356 -4.61398 35103 ft 463 kts 206°
2026-04-25 10:37 36.67524 -4.64871 35103 ft 465 kts 206°
2026-04-25 10:38 36.61706 -4.68331 35103 ft 468 kts 206°
2026-04-25 10:38 36.55814 -4.71828 35097 ft 470 kts 206°
2026-04-25 10:39 36.49890 -4.75339 35075 ft 473 kts 206°
2026-04-25 10:39 36.43942 -4.78858 35075 ft 473 kts 206°
2026-04-25 10:40 36.37997 -4.82368 35074 ft 473 kts 206°
2026-04-25 10:40 36.32087 -4.85853 35072 ft 473 kts 206°
2026-04-25 10:41 36.26145 -4.89351 35070 ft 472 kts 206°
2026-04-25 10:41 36.20214 -4.92835 35073 ft 471 kts 206°
2026-04-25 10:42 36.14292 -4.96309 35044 ft 471 kts 207°
2026-04-25 10:42 36.08380 -4.99772 35068 ft 470 kts 207°
2026-04-25 10:43 36.02503 -5.03209 35076 ft 471 kts 207°
2026-04-25 10:43 35.96576 -5.06669 35077 ft 472 kts 207°
2026-04-25 10:44 35.90630 -5.10135 35083 ft 473 kts 207°
2026-04-25 10:44 35.84705 -5.13586 35070 ft 475 kts 208°
2026-04-25 10:45 35.79198 -5.17973 35066 ft 471 kts 220°
2026-04-25 10:45 35.73986 -5.22876 35052 ft 472 kts 220°
2026-04-25 10:46 35.68762 -5.27768 35052 ft 473 kts 220°
2026-04-25 10:46 35.63528 -5.32605 35043 ft 474 kts 219°
2026-04-25 10:47 35.58256 -5.37440 35044 ft 472 kts 220°
2026-04-25 10:47 35.52992 -5.42256 35046 ft 471 kts 220°
2026-04-25 10:48 35.47744 -5.47053 35045 ft 470 kts 220°
2026-04-25 10:48 35.42503 -5.51835 35032 ft 469 kts 220°
2026-04-25 10:49 35.37300 -5.56576 35013 ft 469 kts 220°
2026-04-25 10:49 35.32080 -5.61325 35020 ft 467 kts 220°
2026-04-25 10:50 35.26875 -5.66051 35018 ft 465 kts 220°
2026-04-25 10:50 35.21688 -5.70755 35028 ft 463 kts 220°
2026-04-25 10:51 35.16553 -5.75402 35016 ft 462 kts 221°
2026-04-25 10:51 35.11392 -5.80068 35020 ft 462 kts 221°
2026-04-25 10:52 35.06229 -5.84726 35018 ft 461 kts 221°
2026-04-25 10:52 35.01071 -5.89374 35034 ft 461 kts 221°
2026-04-25 10:53 34.95945 -5.93985 35027 ft 461 kts 221°
2026-04-25 10:53 34.90778 -5.98625 35017 ft 461 kts 221°
2026-04-25 10:54 34.85604 -6.03264 35019 ft 462 kts 221°
2026-04-25 10:54 34.80427 -6.07897 35019 ft 462 kts 221°
2026-04-25 10:55 34.75287 -6.12491 35017 ft 461 kts 221°
2026-04-25 10:55 34.70120 -6.17101 35017 ft 461 kts 221°
2026-04-25 10:56 34.64956 -6.21702 35014 ft 460 kts 221°
2026-04-25 10:56 34.59793 -6.26294 35016 ft 460 kts 221°
2026-04-25 10:57 34.54635 -6.30875 35008 ft 459 kts 221°
2026-04-25 10:57 34.49519 -6.35411 35010 ft 458 kts 221°
2026-04-25 10:58 34.44375 -6.39965 35009 ft 457 kts 221°
2026-04-25 10:58 34.39239 -6.44506 35013 ft 457 kts 221°
2026-04-25 10:59 34.34113 -6.49030 35004 ft 456 kts 221°
2026-04-25 10:59 34.29022 -6.53517 35001 ft 455 kts 221°
2026-04-25 11:00 34.23910 -6.58015 34988 ft 454 kts 221°
2026-04-25 11:00 34.18813 -6.62493 34990 ft 453 kts 221°
2026-04-25 11:01 34.13724 -6.66958 34996 ft 452 kts 221°
2026-04-25 11:01 34.08675 -6.71383 34993 ft 451 kts 221°
2026-04-25 11:02 34.03595 -6.75806 34991 ft 451 kts 220°
2026-04-25 11:02 33.98428 -6.80077 34985 ft 450 kts 219°
2026-04-25 11:03 33.93244 -6.84296 34970 ft 449 kts 219°
2026-04-25 11:03 33.88080 -6.88513 34994 ft 448 kts 219°
2026-04-25 11:04 33.82967 -6.92701 35007 ft 447 kts 219°
2026-04-25 11:04 33.77827 -6.96910 34995 ft 447 kts 219°
2026-04-25 11:05 33.72684 -7.01116 35002 ft 447 kts 218°
2026-04-25 11:05 33.67552 -7.05307 35011 ft 446 kts 218°
2026-04-25 11:06 33.62454 -7.09463 35023 ft 446 kts 218°
2026-04-25 11:06 33.57326 -7.13637 35018 ft 445 kts 218°
2026-04-25 11:07 33.52197 -7.17807 35015 ft 445 kts 218°
2026-04-25 11:07 33.47075 -7.21964 34992 ft 445 kts 218°
2026-04-25 11:08 33.41992 -7.26084 35004 ft 444 kts 217°
2026-04-25 11:08 33.36870 -7.30229 35005 ft 444 kts 217°
2026-04-25 11:09 33.31756 -7.34363 34994 ft 444 kts 217°
2026-04-25 11:09 33.26640 -7.38492 34999 ft 444 kts 217°
2026-04-25 11:10 33.21555 -7.42590 34994 ft 444 kts 217°
2026-04-25 11:10 33.16430 -7.46716 34995 ft 444 kts 217°
2026-04-25 11:11 33.11300 -7.50827 34998 ft 445 kts 216°
2026-04-25 11:11 33.05990 -7.54649 34996 ft 446 kts 213°
2026-04-25 11:12 33.00613 -7.58353 34987 ft 447 kts 213°
2026-04-25 11:12 32.95285 -7.62066 34981 ft 446 kts 213°
2026-04-25 11:13 32.89937 -7.65819 34978 ft 446 kts 213°
2026-04-25 11:13 32.84588 -7.69567 34979 ft 446 kts 213°
2026-04-25 11:14 32.79239 -7.73310 34977 ft 446 kts 213°
2026-04-25 11:14 32.73934 -7.77020 34977 ft 445 kts 213°
2026-04-25 11:15 32.68592 -7.80752 34976 ft 445 kts 213°
2026-04-25 11:15 32.63258 -7.84473 34963 ft 445 kts 213°
2026-04-25 11:16 32.55306 -7.90011 34976 ft 444 kts 213°
2026-04-25 11:16 32.49983 -7.93712 34979 ft 443 kts 213°
2026-04-25 11:17 32.44665 -7.97404 34976 ft 443 kts 213°
2026-04-25 11:17 32.39348 -8.01090 34982 ft 443 kts 213°
2026-04-25 11:18 32.34075 -8.04741 34969 ft 442 kts 213°
2026-04-25 11:18 32.28765 -8.08413 34985 ft 442 kts 213°
2026-04-25 11:19 32.23454 -8.12080 34974 ft 442 kts 213°
2026-04-25 11:19 32.18147 -8.15741 34971 ft 442 kts 213°
2026-04-25 11:20 32.12871 -8.19374 34981 ft 442 kts 213°
2026-04-25 11:20 32.07549 -8.22985 34974 ft 442 kts 212°
2026-04-25 11:21 32.02209 -8.26558 34968 ft 441 kts 212°
2026-04-25 11:21 31.96867 -8.30129 34966 ft 441 kts 212°
2026-04-25 11:22 31.92434 -8.33095 34968 ft 441 kts 212°
2026-04-25 11:22 31.86233 -8.37244 34970 ft 441 kts 212°
2026-04-25 11:23 31.80891 -8.40813 34981 ft 442 kts 212°
2026-04-25 11:23 31.75547 -8.44379 34968 ft 442 kts 212°
2026-04-25 11:24 31.70241 -8.47914 34970 ft 441 kts 212°
2026-04-25 11:24 31.64896 -8.51472 34975 ft 442 kts 212°
2026-04-25 11:25 31.59550 -8.55024 34974 ft 442 kts 212°
2026-04-25 11:25 31.54204 -8.58572 34977 ft 442 kts 212°
2026-04-25 11:26 31.48885 -8.62097 34970 ft 443 kts 211°
2026-04-25 11:26 31.46201 -8.63875 35102 ft 443 kts 211°
2026-04-25 11:26 31.43523 -8.65646 35327 ft 441 kts 211°
2026-04-25 11:27 31.40854 -8.67411 35571 ft 439 kts 211°
2026-04-25 11:27 31.38201 -8.69163 35780 ft 438 kts 212°
2026-04-25 11:27 31.35547 -8.70916 35946 ft 438 kts 212°
2026-04-25 11:27 31.33786 -8.72078 36037 ft 438 kts 211°
2026-04-25 11:28 31.30225 -8.74428 36144 ft 440 kts 211°
2026-04-25 11:28 31.27557 -8.76187 36298 ft 440 kts 211°
2026-04-25 11:28 31.24930 -8.77917 36498 ft 439 kts 212°
2026-04-25 11:28 31.22274 -8.79665 36669 ft 438 kts 212°
2026-04-25 11:29 31.19628 -8.81405 36810 ft 437 kts 211°
2026-04-25 11:29 31.16983 -8.83144 36948 ft 436 kts 212°
2026-04-25 11:29 31.11677 -8.86629 36960 ft 438 kts 212°
2026-04-25 11:30 31.06385 -8.90100 36939 ft 435 kts 211°
2026-04-25 11:30 31.01154 -8.93526 36955 ft 433 kts 211°
2026-04-25 11:31 30.95913 -8.96955 36919 ft 432 kts 211°
2026-04-25 11:31 30.90679 -9.00375 36921 ft 431 kts 211°
2026-04-25 11:32 30.85453 -9.03786 36904 ft 430 kts 211°
2026-04-25 11:32 30.80263 -9.07168 36908 ft 430 kts 211°
2026-04-25 11:33 30.75039 -9.10569 36898 ft 431 kts 211°
2026-04-25 11:33 30.69797 -9.13977 36895 ft 432 kts 211°
2026-04-25 11:34 30.64544 -9.17388 36899 ft 433 kts 211°
2026-04-25 11:34 30.59310 -9.20782 36887 ft 435 kts 211°
2026-04-25 11:35 30.54024 -9.24206 36897 ft 436 kts 211°
2026-04-25 11:35 30.48722 -9.27636 36893 ft 437 kts 211°
2026-04-25 11:36 30.43415 -9.31065 36895 ft 437 kts 211°
2026-04-25 11:36 30.38095 -9.34500 36891 ft 438 kts 211°
2026-04-25 11:37 30.32804 -9.37904 36884 ft 438 kts 210°
2026-04-25 11:37 30.27178 -9.40650 36889 ft 440 kts 202°
2026-04-25 11:38 30.21418 -9.43059 36895 ft 440 kts 202°
2026-04-25 11:38 30.15681 -9.45499 36891 ft 439 kts 202°
2026-04-25 11:39 30.10002 -9.47961 36893 ft 439 kts 202°
2026-04-25 11:39 30.04285 -9.50448 36885 ft 438 kts 202°
2026-04-25 11:40 29.98580 -9.52924 36894 ft 438 kts 202°
2026-04-25 11:40 29.92880 -9.55394 36900 ft 438 kts 202°
2026-04-25 11:41 29.87227 -9.57858 36903 ft 437 kts 203°
2026-04-25 11:41 29.81539 -9.60345 36901 ft 437 kts 203°
2026-04-25 11:42 29.75856 -9.62825 36893 ft 437 kts 203°
2026-04-25 11:42 29.70209 -9.65285 36907 ft 436 kts 203°
2026-04-25 11:43 29.64529 -9.67756 36901 ft 437 kts 203°
2026-04-25 11:43 29.58844 -9.70225 36910 ft 437 kts 203°
2026-04-25 11:44 29.53153 -9.72691 36909 ft 437 kts 203°
2026-04-25 11:44 29.47464 -9.75154 36915 ft 437 kts 203°
2026-04-25 11:45 29.41808 -9.77600 36902 ft 438 kts 203°
2026-04-25 11:45 29.36109 -9.80063 36913 ft 438 kts 203°
2026-04-25 11:46 29.30405 -9.82525 36906 ft 438 kts 203°
2026-04-25 11:46 29.24697 -9.84985 36925 ft 438 kts 203°
2026-04-25 11:47 29.19026 -9.87427 36925 ft 438 kts 203°
2026-04-25 11:47 29.13323 -9.89879 36927 ft 438 kts 204°
2026-04-25 11:48 29.07625 -9.92327 36934 ft 437 kts 204°
2026-04-25 11:48 29.01931 -9.94771 36942 ft 437 kts 204°
2026-04-25 11:49 28.96272 -9.97191 36940 ft 437 kts 203°
2026-04-25 11:49 28.90578 -9.99614 36936 ft 437 kts 203°
2026-04-25 11:50 28.87726 -10.00826 36816 ft 439 kts 203°
2026-04-25 11:50 28.84854 -10.02048 36524 ft 442 kts 204°
2026-04-25 11:50 28.81970 -10.03274 36272 ft 441 kts 203°
2026-04-25 11:50 28.79113 -10.04486 36023 ft 437 kts 203°
2026-04-25 11:51 28.73386 -10.06917 35921 ft 440 kts 203°
2026-04-25 11:51 28.67705 -10.09326 35914 ft 438 kts 203°
2026-04-25 11:52 28.62008 -10.11738 35904 ft 436 kts 203°
2026-04-25 11:52 28.56314 -10.14147 35903 ft 436 kts 204°
2026-04-25 11:53 28.50631 -10.16549 35906 ft 436 kts 204°
2026-04-25 11:53 28.44987 -10.18931 35907 ft 436 kts 204°
2026-04-25 11:54 28.39298 -10.21330 35899 ft 437 kts 203°
2026-04-25 11:55 28.30732 -10.24936 35905 ft 439 kts 203°
2026-04-25 11:55 28.24994 -10.27348 35883 ft 440 kts 204°
2026-04-25 11:56 28.19274 -10.29750 35902 ft 442 kts 204°
2026-04-25 11:56 28.13507 -10.32168 35900 ft 443 kts 204°
2026-04-25 11:57 28.07713 -10.34595 35902 ft 444 kts 204°
2026-04-25 11:57 28.01909 -10.37024 35900 ft 445 kts 204°
2026-04-25 11:58 27.96138 -10.39435 35878 ft 445 kts 204°
2026-04-25 11:58 27.90335 -10.41859 35890 ft 445 kts 204°
2026-04-25 11:59 27.84525 -10.44281 35899 ft 445 kts 204°
2026-04-25 11:59 27.78723 -10.46698 35903 ft 444 kts 204°
2026-04-25 12:00 27.70067 -10.50300 35901 ft 444 kts 204°
2026-04-25 12:01 27.61401 -10.53952 35900 ft 442 kts 205°
2026-04-25 12:01 27.55664 -10.56435 35900 ft 442 kts 205°
2026-04-25 12:02 27.47096 -10.60136 35905 ft 442 kts 205°
2026-04-25 12:02 27.41349 -10.62607 35906 ft 442 kts 205°
2026-04-25 12:03 27.35602 -10.65074 35908 ft 442 kts 205°
2026-04-25 12:03 27.29848 -10.67540 35907 ft 443 kts 205°
2026-04-25 12:04 27.24124 -10.69991 35908 ft 443 kts 205°
2026-04-25 12:04 27.18360 -10.72456 35913 ft 444 kts 205°
2026-04-25 12:05 27.12589 -10.74921 35920 ft 444 kts 205°
2026-04-25 12:05 27.06822 -10.77383 35918 ft 444 kts 205°
2026-04-25 12:06 27.01086 -10.79828 35916 ft 444 kts 206°
2026-04-25 12:06 26.95306 -10.82289 35920 ft 444 kts 206°
2026-04-25 12:07 26.89527 -10.84747 35926 ft 444 kts 206°
2026-04-25 12:07 26.83744 -10.87204 35928 ft 445 kts 206°
2026-04-25 12:08 26.78003 -10.89641 35935 ft 444 kts 206°
2026-04-25 12:08 26.72216 -10.92094 35929 ft 444 kts 206°
2026-04-25 12:09 26.66440 -10.94539 35931 ft 444 kts 206°
2026-04-25 12:09 26.60664 -10.96983 35938 ft 444 kts 206°
2026-04-25 12:10 26.54920 -10.99411 35944 ft 445 kts 206°
2026-04-25 12:10 26.49131 -11.01855 35955 ft 445 kts 206°
2026-04-25 12:11 26.43338 -11.04298 35925 ft 445 kts 207°
2026-04-25 12:11 26.37538 -11.06740 35948 ft 445 kts 207°
2026-04-25 12:12 26.32725 -11.08766 35955 ft 446 kts 207°
2026-04-25 12:12 26.25980 -11.11601 35960 ft 446 kts 207°
2026-04-25 12:13 26.20168 -11.14042 35958 ft 446 kts 207°
2026-04-25 12:13 26.14356 -11.16479 35967 ft 447 kts 207°
2026-04-25 12:14 26.08579 -11.18900 35965 ft 446 kts 208°
2026-04-25 12:14 26.02759 -11.21335 35957 ft 446 kts 208°
2026-04-25 12:15 25.96946 -11.23765 35962 ft 446 kts 208°
2026-04-25 12:15 25.91134 -11.26192 35957 ft 446 kts 208°
2026-04-25 12:16 25.85365 -11.28599 35964 ft 446 kts 208°
2026-04-25 12:16 25.79565 -11.31017 35945 ft 445 kts 208°
2026-04-25 12:17 25.73776 -11.33426 35951 ft 444 kts 209°
2026-04-25 12:17 25.67986 -11.35834 35956 ft 444 kts 209°
2026-04-25 12:18 25.62240 -11.38222 35963 ft 444 kts 209°
2026-04-25 12:18 25.56454 -11.40624 35953 ft 444 kts 209°
2026-04-25 12:19 25.47760 -11.44228 35937 ft 444 kts 209°
2026-04-25 12:20 25.41970 -11.46625 35941 ft 445 kts 209°
2026-04-25 12:20 25.36215 -11.49005 35955 ft 445 kts 209°
2026-04-25 12:21 25.30414 -11.51403 35946 ft 446 kts 209°
2026-04-25 12:21 25.24603 -11.53802 35948 ft 446 kts 209°
2026-04-25 12:22 25.18757 -11.56168 35946 ft 448 kts 208°
2026-04-25 12:22 25.12891 -11.58376 35940 ft 449 kts 208°
2026-04-25 12:23 25.06973 -11.60579 35956 ft 449 kts 208°
2026-04-25 12:23 25.01066 -11.62792 35939 ft 449 kts 208°
2026-04-25 12:24 24.95156 -11.65017 35942 ft 449 kts 208°
2026-04-25 12:24 24.89241 -11.67245 35946 ft 449 kts 208°
2026-04-25 12:25 24.83370 -11.69453 35936 ft 448 kts 208°
2026-04-25 12:25 24.77475 -11.71668 35941 ft 448 kts 208°
2026-04-25 12:26 24.71574 -11.73884 35946 ft 448 kts 208°
2026-04-25 12:26 24.65715 -11.76082 35948 ft 448 kts 208°
2026-04-25 12:27 24.59815 -11.78292 35947 ft 448 kts 208°
2026-04-25 12:27 24.53918 -11.80499 35912 ft 448 kts 208°
2026-04-25 12:28 24.48030 -11.82700 35935 ft 447 kts 208°
2026-04-25 12:28 24.42181 -11.84885 35949 ft 447 kts 208°
2026-04-25 12:29 24.36300 -11.87080 35945 ft 447 kts 208°
2026-04-25 12:29 24.30417 -11.89274 35946 ft 447 kts 208°
2026-04-25 12:30 24.24529 -11.91467 35948 ft 447 kts 208°
2026-04-25 12:30 24.18680 -11.93643 35951 ft 447 kts 208°
2026-04-25 12:31 24.12797 -11.95830 35954 ft 447 kts 208°
2026-04-25 12:31 24.06902 -11.98019 35951 ft 447 kts 208°
2026-04-25 12:32 24.01011 -12.00205 35955 ft 447 kts 208°
2026-04-25 12:32 23.95154 -12.02376 35951 ft 447 kts 208°
2026-04-25 12:33 23.89258 -12.04559 35922 ft 447 kts 208°
2026-04-25 12:33 23.83375 -12.06734 35949 ft 447 kts 208°
2026-04-25 12:34 23.77486 -12.08911 35957 ft 446 kts 208°
2026-04-25 12:34 23.71640 -12.11070 35956 ft 447 kts 208°
2026-04-25 12:35 23.65749 -12.13244 35956 ft 447 kts 208°
2026-04-25 12:35 23.59855 -12.15416 35958 ft 447 kts 208°
2026-04-25 12:36 23.53964 -12.17585 35959 ft 446 kts 209°
2026-04-25 12:36 23.48114 -12.19738 35955 ft 446 kts 209°
2026-04-25 12:37 23.42231 -12.21901 35957 ft 447 kts 209°
2026-04-25 12:37 23.36341 -12.24067 35949 ft 447 kts 209°
2026-04-25 12:38 23.30491 -12.26218 35958 ft 447 kts 209°
2026-04-25 12:38 23.24611 -12.28379 35917 ft 446 kts 209°
2026-04-25 12:39 23.18724 -12.30539 35941 ft 446 kts 209°
2026-04-25 12:39 23.12841 -12.32696 35949 ft 446 kts 209°
2026-04-25 12:40 23.07006 -12.34834 35952 ft 446 kts 209°
2026-04-25 12:40 23.01131 -12.36985 35950 ft 446 kts 209°
2026-04-25 12:41 22.95249 -12.39136 35946 ft 446 kts 209°
2026-04-25 12:41 22.89374 -12.41282 35932 ft 445 kts 209°
2026-04-25 12:42 22.83548 -12.43409 35945 ft 445 kts 209°
2026-04-25 12:42 22.77688 -12.45547 35938 ft 445 kts 209°
2026-04-25 12:43 22.72022 -12.48025 35950 ft 435 kts 215°
2026-04-25 12:43 22.63904 -12.52285 35930 ft 434 kts 216°
2026-04-25 12:44 22.58473 -12.55123 35928 ft 433 kts 216°
2026-04-25 12:45 22.50297 -12.59333 35938 ft 434 kts 215°
2026-04-25 12:45 22.42130 -12.63510 35931 ft 435 kts 215°
2026-04-25 12:46 22.36656 -12.66306 35928 ft 435 kts 215°
2026-04-25 12:46 22.31185 -12.69099 35926 ft 435 kts 215°
2026-04-25 12:47 22.25707 -12.71894 35910 ft 435 kts 215°
2026-04-25 12:47 22.20269 -12.74666 35918 ft 435 kts 215°
2026-04-25 12:48 22.14796 -12.77453 35925 ft 435 kts 215°
2026-04-25 12:48 22.09316 -12.80242 35922 ft 435 kts 215°
2026-04-25 12:49 22.03839 -12.83027 35919 ft 435 kts 215°
2026-04-25 12:49 21.98363 -12.85808 35916 ft 435 kts 215°
2026-04-25 12:50 21.92929 -12.88566 35889 ft 434 kts 214°
2026-04-25 12:50 21.87463 -12.91338 35907 ft 434 kts 214°
2026-04-25 12:51 21.82000 -12.94106 35919 ft 434 kts 214°
2026-04-25 12:51 21.76568 -12.96856 35914 ft 434 kts 214°
2026-04-25 12:52 21.71100 -12.99623 35916 ft 434 kts 214°
2026-04-25 12:52 21.65626 -13.02389 35914 ft 435 kts 214°
2026-04-25 12:53 21.60153 -13.05154 35888 ft 435 kts 214°
2026-04-25 12:53 21.54712 -13.07899 35897 ft 435 kts 214°
2026-04-25 12:54 21.49232 -13.10662 35909 ft 435 kts 214°
2026-04-25 12:54 21.43747 -13.13425 35899 ft 436 kts 214°
2026-04-25 12:55 21.40111 -13.15255 35899 ft 436 kts 214°
2026-04-25 12:55 21.32795 -13.18935 35900 ft 437 kts 214°
2026-04-25 12:56 21.27289 -13.21701 35900 ft 437 kts 214°
2026-04-25 12:56 21.21779 -13.24467 35897 ft 437 kts 214°
2026-04-25 12:57 21.16265 -13.27233 35901 ft 438 kts 214°
2026-04-25 12:57 21.10785 -13.29980 35901 ft 438 kts 214°
2026-04-25 12:58 21.05261 -13.32747 35898 ft 439 kts 214°
2026-04-25 12:58 20.99731 -13.35514 35889 ft 439 kts 214°
2026-04-25 12:59 20.94196 -13.38281 35890 ft 439 kts 214°
2026-04-25 12:59 20.88701 -13.41026 35888 ft 439 kts 214°
2026-04-25 13:00 20.84998 -13.42874 35888 ft 438 kts 214°
2026-04-25 13:00 20.77646 -13.46542 35891 ft 438 kts 214°
2026-04-25 13:01 20.72161 -13.49276 36026 ft 438 kts 214°
2026-04-25 13:01 20.69396 -13.50654 36181 ft 438 kts 214°
2026-04-25 13:01 20.66637 -13.52026 36437 ft 436 kts 214°
2026-04-25 13:02 20.63897 -13.53387 36705 ft 433 kts 213°
2026-04-25 13:02 20.61170 -13.54743 36949 ft 431 kts 213°
2026-04-25 13:02 20.58453 -13.56093 37094 ft 431 kts 213°
2026-04-25 13:02 20.56648 -13.56992 37168 ft 432 kts 213°
2026-04-25 13:03 20.53041 -13.58787 37358 ft 432 kts 213°
2026-04-25 13:03 20.50325 -13.60136 37615 ft 429 kts 213°
2026-04-25 13:03 20.47624 -13.61476 37829 ft 427 kts 213°
2026-04-25 13:03 20.44928 -13.62813 37853 ft 429 kts 213°
2026-04-25 13:04 20.40418 -13.65053 37874 ft 430 kts 213°
2026-04-25 13:04 20.35004 -13.67736 37873 ft 429 kts 213°
2026-04-25 13:05 20.28730 -13.70843 37868 ft 427 kts 213°
2026-04-25 13:05 20.24255 -13.73058 37847 ft 426 kts 213°
2026-04-25 13:06 20.18887 -13.75712 37860 ft 425 kts 213°
2026-04-25 13:06 20.13524 -13.78364 37869 ft 425 kts 213°
2026-04-25 13:07 20.08148 -13.81020 37872 ft 427 kts 213°
2026-04-25 13:07 20.02756 -13.83681 37865 ft 428 kts 213°
2026-04-25 13:08 19.97382 -13.86331 37858 ft 429 kts 213°
2026-04-25 13:08 19.91963 -13.89000 37844 ft 430 kts 212°
2026-04-25 13:09 19.86525 -13.91678 37860 ft 431 kts 212°
2026-04-25 13:09 19.81078 -13.94359 37865 ft 432 kts 212°
2026-04-25 13:10 19.75646 -13.97032 37860 ft 433 kts 213°
2026-04-25 13:10 19.70389 -14.00078 37861 ft 430 kts 217°
2026-04-25 13:11 19.65211 -14.03265 37860 ft 430 kts 217°
2026-04-25 13:11 19.60022 -14.06449 37853 ft 431 kts 217°
2026-04-25 13:12 19.54860 -14.09590 37851 ft 431 kts 217°
2026-04-25 13:12 19.50528 -14.12214 37850 ft 431 kts 217°
2026-04-25 13:13 19.44433 -14.15901 37855 ft 432 kts 217°
2026-04-25 13:13 19.39213 -14.19055 37856 ft 432 kts 217°
2026-04-25 13:14 19.34024 -14.22189 37840 ft 432 kts 217°
2026-04-25 13:14 19.28803 -14.25340 37850 ft 432 kts 217°
2026-04-25 13:15 19.23578 -14.28492 37853 ft 432 kts 217°
2026-04-25 13:15 19.18388 -14.31620 37846 ft 432 kts 216°
2026-04-25 13:16 19.13156 -14.34771 37854 ft 433 kts 216°
2026-04-25 13:16 19.07921 -14.37921 37847 ft 433 kts 216°
2026-04-25 13:17 19.02677 -14.41074 37844 ft 434 kts 216°
2026-04-25 13:17 18.97467 -14.44205 37844 ft 434 kts 216°
2026-04-25 13:18 18.92213 -14.47360 37849 ft 435 kts 216°
2026-04-25 13:18 18.86950 -14.50518 37826 ft 435 kts 216°
2026-04-25 13:19 18.81687 -14.53674 37843 ft 435 kts 216°
2026-04-25 13:19 18.77311 -14.56296 37849 ft 435 kts 216°
2026-04-25 13:20 18.71187 -14.59962 37847 ft 436 kts 216°
2026-04-25 13:20 18.65911 -14.63120 37848 ft 436 kts 216°
2026-04-25 13:21 18.60654 -14.66262 37846 ft 437 kts 216°
2026-04-25 13:21 18.55369 -14.69419 37853 ft 437 kts 216°
2026-04-25 13:22 18.50087 -14.72573 37840 ft 436 kts 216°
2026-04-25 13:23 18.42160 -14.77301 37842 ft 436 kts 216°
2026-04-25 13:23 18.36913 -14.80428 37858 ft 436 kts 216°
2026-04-25 13:24 18.31632 -14.83573 37856 ft 436 kts 216°
2026-04-25 13:24 18.26349 -14.86717 37845 ft 436 kts 216°
2026-04-25 13:25 18.21100 -14.89839 37857 ft 436 kts 216°
2026-04-25 13:25 18.15826 -14.92973 37852 ft 435 kts 215°
2026-04-25 13:26 18.10548 -14.96108 37852 ft 435 kts 215°
2026-04-25 13:26 18.05270 -14.99240 37852 ft 435 kts 215°
2026-04-25 13:27 18.00032 -15.02347 37852 ft 435 kts 215°
2026-04-25 13:27 17.94757 -15.05473 37849 ft 435 kts 215°
2026-04-25 13:28 17.89483 -15.08598 37853 ft 435 kts 215°
2026-04-25 13:28 17.84202 -15.11724 37847 ft 435 kts 215°
2026-04-25 13:29 17.79237 -15.15199 37849 ft 430 kts 221°
2026-04-25 13:29 17.74421 -15.18933 37851 ft 431 kts 221°
2026-04-25 13:30 17.67124 -15.24475 37848 ft 432 kts 221°
2026-04-25 13:31 17.59828 -15.29967 37851 ft 432 kts 221°
2026-04-25 13:31 17.54946 -15.33647 37848 ft 433 kts 221°
2026-04-25 13:32 17.50059 -15.37330 37857 ft 433 kts 221°
2026-04-25 13:32 17.45163 -15.41016 37850 ft 433 kts 221°
2026-04-25 13:33 17.40298 -15.44677 37855 ft 433 kts 221°
2026-04-25 13:33 17.35398 -15.48361 37849 ft 433 kts 221°
2026-04-25 13:34 17.30503 -15.52039 37854 ft 433 kts 221°
2026-04-25 13:34 17.25607 -15.55716 37855 ft 433 kts 221°
2026-04-25 13:35 17.20740 -15.59369 37848 ft 433 kts 221°
2026-04-25 13:35 17.15841 -15.63045 37847 ft 433 kts 221°
2026-04-25 13:36 17.10943 -15.66715 37838 ft 433 kts 220°
2026-04-25 13:36 17.06086 -15.70355 37856 ft 433 kts 220°
2026-04-25 13:37 17.01191 -15.74024 37858 ft 433 kts 220°
2026-04-25 13:37 16.96297 -15.77691 37855 ft 433 kts 220°
2026-04-25 13:38 16.91394 -15.81362 37858 ft 434 kts 220°
2026-04-25 13:38 16.86515 -15.85013 37863 ft 435 kts 220°
2026-04-25 13:39 16.81592 -15.88694 37863 ft 435 kts 220°
2026-04-25 13:39 16.76668 -15.92374 37843 ft 436 kts 220°
2026-04-25 13:40 16.71731 -15.96061 37870 ft 436 kts 220°
2026-04-25 13:40 16.66796 -15.99745 37856 ft 437 kts 220°
2026-04-25 13:41 16.61890 -16.03404 37866 ft 437 kts 220°
2026-04-25 13:41 16.56931 -16.07101 37872 ft 438 kts 220°
2026-04-25 13:42 16.51971 -16.10796 37869 ft 438 kts 220°
2026-04-25 13:42 16.47004 -16.14488 37869 ft 439 kts 220°
2026-04-25 13:43 16.42032 -16.18180 37866 ft 439 kts 220°
2026-04-25 13:43 16.37087 -16.21851 37647 ft 443 kts 220°
2026-04-25 13:43 16.34579 -16.23714 37384 ft 443 kts 220°
2026-04-25 13:44 16.32075 -16.25571 37124 ft 441 kts 220°
2026-04-25 13:44 16.29574 -16.27425 36877 ft 442 kts 220°
2026-04-25 13:44 16.27063 -16.29287 36639 ft 443 kts 220°
2026-04-25 13:44 16.24589 -16.31122 36390 ft 444 kts 220°
2026-04-25 13:45 16.22072 -16.32988 36145 ft 444 kts 220°
2026-04-25 13:45 16.19570 -16.34840 35715 ft 440 kts 220°
2026-04-25 13:45 16.17067 -16.36694 35023 ft 443 kts 220°
2026-04-25 13:45 16.14541 -16.38567 34200 ft 450 kts 220°
2026-04-25 13:46 16.11965 -16.40477 33281 ft 458 kts 220°
2026-04-25 13:46 16.09353 -16.42410 32409 ft 463 kts 220°
2026-04-25 13:46 16.06717 -16.44330 31834 ft 463 kts 218°
2026-04-25 13:46 16.03931 -16.45919 31397 ft 464 kts 209°
2026-04-25 13:47 16.00891 -16.47058 30942 ft 466 kts 201°
2026-04-25 13:47 15.97786 -16.47978 30452 ft 463 kts 201°
2026-04-25 13:47 15.94690 -16.48892 29938 ft 462 kts 201°
2026-04-25 13:47 15.91608 -16.49810 29351 ft 459 kts 201°
2026-04-25 13:48 15.88555 -16.50730 28847 ft 455 kts 201°
2026-04-25 13:48 15.85525 -16.51650 28359 ft 451 kts 201°
2026-04-25 13:48 15.82529 -16.52566 27854 ft 448 kts 201°
2026-04-25 13:48 15.79546 -16.53482 27344 ft 445 kts 201°
2026-04-25 13:49 15.76631 -16.54377 26856 ft 442 kts 201°
2026-04-25 13:49 15.73695 -16.55280 26440 ft 437 kts 200°
2026-04-25 13:49 15.70806 -16.56166 26201 ft 430 kts 200°
2026-04-25 13:49 15.67949 -16.57042 25782 ft 426 kts 200°
2026-04-25 13:50 15.65113 -16.57912 25355 ft 423 kts 200°
2026-04-25 13:50 15.62295 -16.58777 24888 ft 422 kts 200°
2026-04-25 13:50 15.59484 -16.59640 24418 ft 421 kts 199°
2026-04-25 13:50 15.56677 -16.60501 23940 ft 421 kts 199°
2026-04-25 13:51 15.53909 -16.61350 23465 ft 420 kts 199°
2026-04-25 13:51 15.51108 -16.62208 22911 ft 419 kts 199°
2026-04-25 13:51 15.48317 -16.63062 22436 ft 416 kts 199°
2026-04-25 13:51 15.45548 -16.63908 21948 ft 413 kts 199°
2026-04-25 13:52 15.42804 -16.64747 21491 ft 410 kts 199°
2026-04-25 13:52 15.40076 -16.65581 21023 ft 407 kts 199°
2026-04-25 13:52 15.37369 -16.66408 20556 ft 404 kts 199°
2026-04-25 13:52 15.34680 -16.67230 20094 ft 402 kts 199°
2026-04-25 13:53 15.32041 -16.68036 19631 ft 399 kts 199°
2026-04-25 13:53 15.29389 -16.68847 19180 ft 396 kts 199°
2026-04-25 13:53 15.26755 -16.69651 18713 ft 394 kts 199°
2026-04-25 13:53 15.24138 -16.70450 18262 ft 391 kts 199°
2026-04-25 13:54 15.21534 -16.71245 17760 ft 388 kts 199°
2026-04-25 13:54 15.18961 -16.72031 17282 ft 384 kts 199°
2026-04-25 13:54 15.16409 -16.72809 16843 ft 380 kts 199°
2026-04-25 13:54 15.13888 -16.73578 16403 ft 375 kts 199°
2026-04-25 13:55 15.11400 -16.74337 15975 ft 371 kts 199°
2026-04-25 13:55 15.08966 -16.75079 15549 ft 368 kts 199°
2026-04-25 13:55 15.06529 -16.75822 15130 ft 364 kts 198°
2026-04-25 13:55 15.04108 -16.76560 14716 ft 360 kts 198°
2026-04-25 13:56 15.01715 -16.77290 14312 ft 357 kts 198°
2026-04-25 13:56 14.99344 -16.78012 13896 ft 354 kts 198°
2026-04-25 13:56 14.96994 -16.78728 13471 ft 350 kts 198°
2026-04-25 13:56 14.94667 -16.79437 13017 ft 347 kts 197°
2026-04-25 13:57 14.92361 -16.80139 12574 ft 344 kts 197°
2026-04-25 13:57 14.90840 -16.80601 12232 ft 344 kts 197°
2026-04-25 13:57 14.87838 -16.81514 11549 ft 334 kts 197°
2026-04-25 13:57 14.85637 -16.82184 11029 ft 326 kts 197°
2026-04-25 13:58 14.83490 -16.82837 10545 ft 319 kts 197°
2026-04-25 13:58 14.81423 -16.83465 10426 ft 300 kts 197°
2026-04-25 13:58 14.79463 -16.84061 10216 ft 287 kts 197°
2026-04-25 13:58 14.77562 -16.84639 9736 ft 285 kts 197°
2026-04-25 13:59 14.75667 -16.85215 9162 ft 286 kts 197°
2026-04-25 13:59 14.73767 -16.85792 8675 ft 284 kts 197°
2026-04-25 13:59 14.71886 -16.86364 8078 ft 287 kts 198°
2026-04-25 13:59 14.69983 -16.86942 7637 ft 284 kts 198°
2026-04-25 14:00 14.68080 -16.87520 7133 ft 286 kts 199°
2026-04-25 14:00 14.66157 -16.88104 6757 ft 289 kts 198°
2026-04-25 14:00 14.64229 -16.88690 6427 ft 290 kts 198°
2026-04-25 14:00 14.62294 -16.89278 6145 ft 289 kts 198°
2026-04-25 14:01 14.60368 -16.89862 5827 ft 289 kts 198°
2026-04-25 14:01 14.58467 -16.90439 5522 ft 288 kts 198°
2026-04-25 14:01 14.56636 -16.91243 5162 ft 288 kts 211°
2026-04-25 14:01 14.54920 -16.92315 4812 ft 289 kts 213°
2026-04-25 14:02 14.53216 -16.93419 4491 ft 289 kts 214°
2026-04-25 14:02 14.51521 -16.94533 4195 ft 288 kts 216°
2026-04-25 14:02 14.50167 -16.96001 3875 ft 283 kts 246°
2026-04-25 14:02 14.49915 -16.96633 3785 ft 280 kts 256°
2026-04-25 14:03 14.49371 -16.99860 3486 ft 270 kts 264°
2026-04-25 14:03 14.49085 -17.01755 3327 ft 264 kts 264°
2026-04-25 14:03 14.48807 -17.03607 3173 ft 258 kts 264°
2026-04-25 14:03 14.48813 -17.05385 3073 ft 239 kts 292°
2026-04-25 14:04 14.49717 -17.06650 3027 ft 214 kts 332°
2026-04-25 14:04 14.51064 -17.07020 2983 ft 195 kts 356°
2026-04-25 14:04 14.52405 -17.07117 2749 ft 192 kts 359°
2026-04-25 14:04 14.53725 -17.07156 2525 ft 188 kts
2026-04-25 14:05 14.55028 -17.07170 2276 ft 186 kts
2026-04-25 14:05 14.56305 -17.07182 2033 ft 179 kts
2026-04-25 14:05 14.57506 -17.07193 1814 ft 165 kts
2026-04-25 14:05 14.58619 -17.07203 1610 ft 155 kts
2026-04-25 14:06 14.59634 -17.07213 1413 ft 144 kts
2026-04-25 14:06 14.60594 -17.07217 1167 ft 136 kts
2026-04-25 14:06 14.61539 -17.07226 992 ft 136 kts
2026-04-25 14:06 14.62488 -17.07236 849 ft 138 kts
2026-04-25 14:07 14.63472 -17.07244 701 ft 145 kts 359°
2026-04-25 14:07 14.64485 -17.07261 520 ft 145 kts
2026-04-25 14:07 14.65467 -17.07268 362 ft 137 kts 359°
2026-04-25 14:07 14.66373 -17.07274 291 ft 118 kts 359°
2026-04-25 14:08 14.67037 -17.07281 294 ft 75 kts 359°
2026-04-25 14:08 14.67415 -17.07289 294 ft 24 kts
2026-04-25 14:08 14.67504 -17.07288 290 ft 14 kts
2026-04-25 14:08 14.67608 -17.07275 291 ft 16 kts 12°
2026-04-25 14:09 14.67717 -17.07238 292 ft 17 kts 22°
2026-04-25 14:09 14.67815 -17.07185 294 ft 13 kts 37°
2026-04-25 14:09 14.67832 -17.07110 293 ft 12 kts 129°
2026-04-25 14:09 14.67781 -17.07096 292 ft 12 kts 180°
2026-04-25 14:10 14.67676 -17.07095 292 ft 11 kts 179°
2026-04-25 14:10 14.67600 -17.07094 292 ft 11 kts 179°
2026-04-25 14:10 14.67540 -17.07059 292 ft 10 kts 117°
2026-04-25 14:10 14.67518 -17.06991 295 ft 10 kts 137°
2026-04-25 14:11 14.67451 -17.06981 296 ft 10 kts 180°
2026-04-25 14:11 14.67383 -17.06980 292 ft 10 kts 179°
2026-04-25 14:11 14.67317 -17.06979 292 ft 9 kts 179°
2026-04-25 14:11 14.67252 -17.06978 296 ft 9 kts 180°
2026-04-25 14:12 14.67196 -17.06958 295 ft 9 kts 130°
2026-04-25 14:12 14.67163 -17.06908 294 ft 6 kts 123°
2026-04-25 14:12 14.67140 -17.06871 294 ft 6 kts 122°
2026-04-25 14:12 14.67129 -17.06852 294 ft 0 kts 122°
2026-04-25 14:13 14.67127 -17.06850 293 ft 1 kts 123°
2026-04-25 14:13 14.67127 -17.06849 293 ft 0 kts 123°